| time (UTC) | temp F | wind direction | speed knots | gust knots | rain 1hr in | rain 24hr in | rain mn in | humidity % | barometer mb |
| 20260503013039 | 66 | 180 | 0.0 | 2.6 | 0.00 | 0.00 | 0.00 | 33 | 1015.8 |
| 20260503011535 | 67 | 0 | 0.9 | 3.5 | 0.00 | 0.00 | 0.00 | 30 | 1015.8 |
| 20260503010028 | 67 | 180 | 0.0 | 3.5 | 0.00 | 0.00 | 0.00 | 29 | 1016.0 |
| 20260503004528 | 67 | 180 | 0.9 | 2.6 | 0.00 | 0.00 | 0.00 | 32 | 1016.0 |
| 20260503003027 | 67 | 180 | 0.9 | 2.6 | 0.00 | 0.00 | 0.00 | 30 | 1016.0 |
| 20260503001532 | 67 | 0 | 1.7 | 4.3 | 0.00 | 0.00 | 0.00 | 30 | 1016.1 |
| 20260503000031 | 68 | 294 | 1.7 | 5.2 | 0.00 | 0.00 | 0.00 | 31 | 1016.3 |
| 20260502234529 | 68 | 0 | 0.9 | 3.5 | 0.00 | 0.00 | 0.00 | 30 | 1016.5 |
| 20260502233030 | 67 | 0 | 0.9 | 7.8 | 0.00 | 0.00 | 0.00 | 30 | 1016.8 |
| 20260502231530 | 67 | 180 | 1.7 | 7.0 | 0.00 | 0.00 | 0.00 | 32 | 1017.1 |
| 20260502230028 | 67 | 180 | 0.0 | 7.8 | 0.00 | 0.00 | 0.00 | 32 | 1017.1 |
| 20260502224529 | 67 | 180 | 1.7 | 7.0 | 0.00 | 0.00 | 0.00 | 32 | 1017.3 |
| 20260502223032 | 66 | 0 | 1.7 | 8.7 | 0.00 | 0.00 | 0.00 | 33 | 1017.4 |
| 20260502221531 | 65 | 180 | 3.5 | 8.7 | 0.00 | 0.00 | 0.00 | 34 | 1017.7 |
| 20260502220028 | 65 | 180 | 0.9 | 7.0 | 0.00 | 0.00 | 0.00 | 34 | 1017.9 |
| 20260502214536 | 65 | 180 | 1.7 | 5.2 | 0.00 | 0.00 | 0.00 | 34 | 1018.1 |
| 20260502213030 | 64 | 180 | 2.6 | 10.4 | 0.00 | 0.00 | 0.00 | 35 | 1018.3 |
| 20260502211530 | 64 | 180 | 2.6 | 7.8 | 0.00 | 0.00 | 0.00 | 37 | 1018.3 |
| 20260502210041 | 65 | 180 | 1.7 | 7.8 | 0.00 | 0.00 | 0.00 | 35 | 1018.5 |
| 20260502204531 | 64 | 180 | 2.6 | 10.4 | 0.00 | 0.00 | 0.00 | 37 | 1018.8 |
| 20260502203027 | 65 | 180 | 0.9 | 4.3 | 0.00 | 0.00 | 0.00 | 35 | 1018.9 |
| 20260502201528 | 65 | 180 | 2.6 | 7.8 | 0.00 | 0.00 | 0.00 | 35 | 1019.0 |
| 20260502200028 | 65 | 180 | 2.6 | 10.4 | 0.00 | 0.00 | 0.00 | 35 | 1019.1 |
| 20260502194529 | 65 | 180 | 2.6 | 7.0 | 0.00 | 0.00 | 0.00 | 37 | 1019.2 |
| 20260502193031 | 66 | 180 | 3.5 | 7.8 | 0.00 | 0.00 | 0.00 | 35 | 1019.3 |
| 20260502191531 | 64 | 180 | 0.9 | 5.2 | 0.00 | 0.00 | 0.00 | 35 | 1019.6 |
| 20260502190033 | 65 | 180 | 5.2 | 9.6 | 0.00 | 0.00 | 0.00 | 36 | 1019.8 |
| 20260502184533 | 63 | 180 | 5.2 | 12.2 | 0.00 | 0.00 | 0.00 | 39 | 1019.8 |
| 20260502183028 | 64 | 180 | 8.7 | 13.0 | 0.00 | 0.00 | 0.00 | 38 | 1019.9 |
| 20260502181529 | 63 | 180 | 2.6 | 5.2 | 0.00 | 0.00 | 0.00 | 37 | 1020.1 |
| 20260502163032 | 61 | 180 | 1.7 | 11.3 | 0.00 | 0.00 | 0.00 | 41 | 1020.7 |
| 20260502161530 | 61 | 180 | 4.3 | 13.0 | 0.00 | 0.00 | 0.00 | 43 | 1020.6 |
| 20260502151532 | 57 | 180 | 2.6 | 7.8 | 0.00 | 0.00 | 0.00 | 44 | 1020.6 |
| 20260502123031 | 44 | 0 | 0.0 | 1.7 | 0.00 | 0.00 | 0.00 | 57 | 1019.4 |
| 20260502121532 | 43 | 180 | 0.9 | 4.3 | 0.00 | 0.00 | 0.00 | 60 | 1019.1 |
| 20260502114538 | 42 | 0 | 0.0 | 3.5 | 0.00 | 0.00 | 0.00 | 60 | 1018.4 |
| 20260502113031 | 44 | 180 | 2.6 | 5.2 | 0.00 | 0.00 | 0.00 | 57 | 1018.3 |
| 20260502111529 | 44 | 180 | 4.3 | 7.0 | 0.00 | 0.00 | 0.00 | 56 | 1018.1 |
| 20260502110029 | 45 | 180 | 3.5 | 7.8 | 0.00 | 0.00 | 0.00 | 54 | 1018.1 |
| 20260502104531 | 46 | 180 | 3.5 | 7.0 | 0.00 | 0.00 | 0.00 | 51 | 1017.9 |
| 20260502103030 | 47 | 180 | 4.3 | 7.0 | 0.00 | 0.00 | 0.00 | 50 | 1017.9 |
| 20260502101529 | 48 | 180 | 1.7 | 7.8 | 0.00 | 0.00 | 0.00 | 48 | 1017.5 |
| 20260502091529 | 48 | 180 | 3.5 | 5.2 | 0.00 | 0.00 | 0.00 | 45 | 1016.7 |
| 20260502071527 | 40 | 0 | 0.9 | 2.6 | 0.00 | 0.00 | 0.00 | 51 | 1016.3 |
| 20260502070033 | 40 | 0 | 0.0 | 4.3 | 0.00 | 0.00 | 0.00 | 50 | 1016.4 |
| 20260502064541 | 41 | 180 | 2.6 | 4.3 | 0.00 | 0.00 | 0.00 | 48 | 1016.4 |
| 20260502063031 | 47 | 180 | 2.6 | 5.2 | 0.00 | 0.00 | 0.00 | 38 | 1016.1 |
| 20260502061531 | 50 | 180 | 1.7 | 4.3 | 0.00 | 0.00 | 0.00 | 37 | 1016.0 |
| 20260502060041 | 51 | 180 | 3.5 | 5.2 | 0.00 | 0.00 | 0.00 | 37 | 1016.0 |
| 20260502054529 | 50 | 180 | 3.5 | 5.2 | 0.00 | 0.00 | 0.00 | 38 | 1015.9 |
| 20260502053030 | 50 | 229 | 0.0 | 3.5 | 0.00 | 0.00 | 0.00 | 37 | 1015.8 |
| 20260502051534 | 52 | 180 | 2.6 | 5.2 | 0.00 | 0.00 | 0.00 | 36 | 1015.9 |
| 20260502050033 | 51 | 180 | 2.6 | 4.3 | 0.00 | 0.00 | 0.00 | 36 | 1015.9 |
| 20260502044528 | 50 | 180 | 2.6 | 4.3 | 0.00 | 0.00 | 0.00 | 37 | 1015.9 |
| 20260502043029 | 54 | 180 | 0.9 | 3.5 | 0.00 | 0.00 | 0.00 | 32 | 1015.8 |
| 20260502041534 | 54 | 180 | 0.9 | 3.5 | 0.00 | 0.00 | 0.00 | 32 | 1015.8 |
| 20260502040032 | 56 | 180 | 1.7 | 7.0 | 0.00 | 0.00 | 0.00 | 29 | 1015.7 |
| 20260502034533 | 57 | 180 | 1.7 | 5.2 | 0.00 | 0.00 | 0.00 | 29 | 1015.7 |
| 20260502033032 | 56 | 180 | 2.6 | 4.3 | 0.00 | 0.00 | 0.00 | 30 | 1015.6 |
| 20260502031530 | 57 | 180 | 1.7 | 4.3 | 0.00 | 0.00 | 0.00 | 28 | 1015.3 |
| 20260502030032 | 58 | 180 | 1.7 | 4.3 | 0.00 | 0.00 | 0.00 | 27 | 1015.1 |
| 20260502024533 | 58 | 180 | 1.7 | 3.5 | 0.00 | 0.00 | 0.00 | 27 | 1014.9 |
| 20260502023029 | 60 | 180 | 1.7 | 3.5 | 0.00 | 0.00 | 0.00 | 26 | 1014.7 |
| 20260502021528 | 63 | 180 | 0.0 | 1.7 | 0.00 | 0.00 | 0.00 | 23 | 1014.7 |
| 20260502020034 | 68 | 180 | 0.9 | 3.5 | 0.00 | 0.00 | 0.00 | 20 | 1014.7 |
| 20260502014529 | 70 | 0 | 0.0 | 3.5 | 0.00 | 0.00 | 0.00 | 18 | 1014.6 |